Location: Six Mile Lake
(44.9000°N, 79.7170°W)
Time: 05:36:52
(UTC-04:00)

ESTCUBE 1 - Pass Details

Date: 06 July 2022
Orbit: 645 x 657 km, 97.9° (Epoch: 15 August)

Event Time Altitude Azimuth Distance (km) Brightness Sun altitude
Exits shadow 00:17:25 21° 231° (SW) 1,450 ? -20.7°
Maximum altitude 00:19:05 26° 265° (W) 1,265 ? -20.8°
Drops below altitude 10° 00:22:52 10° 323° (NW) 2,060 ? -21.0°
Sets 00:25:24 0° 336° (NNW) 2,977 ? -21.1°
